Regional Weather Roundup
Issued by NWS

Home | Current Version | Previous Version | Graphics & Text | Print | Product List | Glossary On
Versions: 1 2 3 4 5 6 7 8 9 10 11 12 13 14 15 16 17 18 19 20 21 22 23 24 25 26 27 28 29 30 31 32 33 34 35 36 37 38 39 40 41 42 43 44 45 46 47 48 49 50
000
ASUS45 KCYS 011910
RWRWY

WYOMING REGIONAL WEATHER ROUNDUP
NATIONAL WEATHER SERVICE CHEYENNE WY
100 PM MDT MON JUN 01 2015

NOTE:  "FAIR" INDICATES FEW OR NO CLOUDS BELOW 12,000 FEET
WITH NO SIGNIFICANT WEATHER AND/OR OBSTRUCTIONS TO VISIBILITY.

WYZ001-012000-
YELLOWSTONE NATIONAL PARK

CITY           SKY/WX    TMP DP  RH WIND       PRES   REMARKS
LK YELLOWSTONE   N/A     63  39  41 E3        30.11F
W YELLOWSTONE  NOT AVBL

$$
WYZ002>013-054>058-071-098>099-012000-
NORTHERN WYOMING

CITY           SKY/WX    TMP DP  RH WIND       PRES   REMARKS
JACKSON        SUNNY     72  45  37 CALM      30.01F
CODY           FAIR      75  52  43 E9        29.93F
GREYBULL       FAIR      82  50  32 SE8       29.86F
WORLAND        FAIR      79  53  40 W6        29.88F
SHERIDAN       FAIR      76  61  59 N8        29.88F
BUFFALO        FAIR      73  53  49 S8        29.95S
GILLETTE       FAIR      81  55  40 S8        29.91F
HULETT         FAIR      82  52  34 SW13      29.94F
NEWCASTLE      FAIR      79  54  41 SE10G16   29.96F

$$
WYZ014>020-022>026-101>103-012000-
CENTRAL WYOMING

CITY           SKY/WX    TMP DP  RH WIND       PRES   REMARKS
BIG PINEY      FAIR      76  40  27 SW14G24   30.08F
PINEDALE       FAIR      73  32  21 S14G21    30.09F
DUBOIS         FAIR      70  41  35 SE7       30.07F
LANDER         FAIR      75  52  44 E3        29.96F
RIVERTON       FAIR      76  50  40 SW10      29.99F
CASPER         FAIR      81  46  29 SW17      30.00F
DOUGLAS        FAIR      82  50  32 CALM      29.99F

$$
WYZ021-027>030-104>119-012000-
SOUTHERN WYOMING

CITY           SKY/WX    TMP DP  RH WIND       PRES   REMARKS
EVANSTON       FAIR      74  33  22 S23G31    30.08F
KEMMERER       FAIR      75  30  19 S14G31    30.10F
FORT BRIDGER   CLOUDY    72  37  28 W9        30.12S
ROCK SPRINGS   PTSUNNY   75  36  24 S15       30.08F
DIXON          FAIR      79  40  24 SW13G21   30.13F
RAWLINS        FAIR      76  38  25 MISG      30.13F
SARATOGA       FAIR      72  37  28 E9        30.15F
LARAMIE        TSTM      61  43  51 SW17G41   30.18R
CHEYENNE       PTSUNNY   73  46  38 SW14      30.10F
TORRINGTON     FAIR      82  53  36 SE12      29.96F
PINE BLUFFS    FAIR      79  46  31 S12       30.05F

$$


USA.gov is the U.S. government's official web portal to all federal, state and local government web resources and services.